Location: Cheb
(50.0670°N, 12.3670°E)
Time: 21:13:49
(UTC+01:00)

ISS - Visible Passes

Search period start: 27 February 2021 00:00
Search period end: 09 March 2021 00:00
Orbit: 417 x 422 km, 51.6° (Epoch: 27 February)

Date Brightness Start Highest point End Pass type
(mag) Time Alt. Az. Time Alt. Az. Time Alt. Az.
27 Feb -3.5 04:52:06 60° SE 04:52:06 60° SE 04:55:18 10° ENE visible
27 Feb -3.6 06:25:28 10° W 06:28:49 65° N 06:32:11 10° E visible
28 Feb -1.2 04:06:30 20° E 04:06:30 20° E 04:07:48 10° E visible
28 Feb -3.7 05:39:28 24° W 05:41:20 71° N 05:44:41 10° ENE visible
01 Mar -3.9 04:53:50 82° NNW 04:53:50 82° NNW 04:57:12 10° ENE visible
02 Mar -1.5 04:08:10 25° ENE 04:08:10 25° ENE 04:09:44 10° ENE visible
02 Mar -3.6 05:41:07 20° WNW 05:43:17 64° N 05:46:38 10° E visible
03 Mar -3.7 04:55:26 60° NW 04:55:46 65° N 04:59:07 10° E visible
04 Mar -1.8 04:09:45 30° ENE 04:09:45 30° ENE 04:11:37 10° ENE visible
04 Mar -3.7 05:42:42 17° WNW 05:45:13 76° NNE 05:48:35 10° E visible
05 Mar -0.2 03:24:05 10° ENE 03:24:05 10° ENE 03:24:06 10° ENE visible
05 Mar -3.6 04:57:02 51° NW 04:57:42 67° N 05:01:04 10° E visible
06 Mar -2.1 04:11:23 35° ENE 04:11:23 35° ENE 04:13:31 10° E visible
06 Mar -3.7 05:44:20 15° WNW 05:47:03 71° SSW 05:50:24 10° ESE visible
07 Mar -0.4 03:25:45 11° E 03:25:45 11° E 03:25:59 10° E visible
07 Mar -3.9 04:58:43 48° WNW 04:59:34 90° SSW 05:02:56 10° ESE visible
08 Mar -2.5 04:13:08 40° E 04:13:08 40° E 04:15:25 10° E visible
08 Mar -3.0 05:46:06 13° W 05:48:44 37° SSW 05:51:51 10° SE visible
